Theta_e
302 302 301 301 300 301 301 300 299 300 300 300 300 299 299 299 299 299 299 299 299 299 299 299 299 299 300 300 300 300 300 300 300 299 298 298 298 298 298 298 298 297 297 297 297 297 297 297 296 296 296 296 296 296 296 297 296 295 295 294 294 294 294 293 293 293 292 292 292
301 301 300 299 299 300 300 300 299 299 299 299 299 299 299 299 299 298 299 299 299 299 299 299 299 299 300 300 300 300 300 299 299 299 298 298 298 298 298 298 298 297 297 297 297 297 297 297 296 296 296 296 295 295 295 297 297 296 294 294 294 293 293 293 292 292 292 292 292
301 301 300 300 299 299 299 299 299 299 299 299 299 299 299 299 299 298 298 299 299 299 299 299 299 299 299 299 300 300 299 299 299 299 298 298 298 298 298 298 298 298 297 297 297 297 297 297 296 295 295 295 295 295 295 295 295 294 294 294 293 293 293 292 292 292 292 291 291
301 300 300 299 299 299 298 298 298 298 299 299 300 299 299 299 299 299 299 299 298 298 298 298 299 299 299 299 299 299 299 298 298 298 298 298 298 298 298 298 298 298 298 298 297 297 297 297 296 295 295 295 295 294 294 294 294 294 294 294 293 293 292 292 292 292 292 291 292
301 300 300 299 299 299 299 299 299 299 299 300 299 299 299 298 299 298 298 298 298 298 298 298 299 299 299 299 299 299 299 298 297 297 298 298 298 298 298 298 298 298 298 298 298 298 298 297 296 296 295 295 295 295 295 294 294 294 294 293 293 293 292 292 292 292 292 291 292
300 300 300 300 300 300 300 300 300 300 300 299 299 298 298 298 298 298 298 297 298 298 298 297 297 297 298 299 299 298 298 298 298 298 298 297 298 297 298 298 298 298 298 298 298 298 298 298 296 296 295 295 295 295 295 295 294 294 293 293 293 293 293 292 292 292 292 291 291
299 299 299 299 299 299 299 300 300 300 300 299 299 298 298 298 298 298 298 298 298 298 297 297 297 297 298 298 298 298 298 298 298 298 298 297 297 297 297 297 297 298 298 298 298 298 298 298 296 295 295 294 294 295 295 295 294 293 293 293 293 293 293 293 293 293 292 292 292
299 299 299 299 299 299 299 299 299 299 299 298 298 298 298 298 298 298 298 298 297 297 297 297 298 298 298 298 298 297 297 297 297 297 297 297 297 297 297 297 297 297 298 298 298 298 297 297 296 295 295 295 294 294 295 296 295 294 293 293 293 293 294 294 294 293 292 292 292
299 299 299 299 299 299 299 299 298 298 298 298 298 298 298 298 298 298 298 297 297 297 297 298 298 298 298 298 297 297 297 297 297 297 297 297 297 297 297 297 297 297 297 298 298 298 297 297 296 295 295 295 294 295 296 296 296 295 294 293 292 293 293 293 293 292 292 292 292
299 299 299 299 299 299 299 299 298 298 298 298 298 298 297 296 297 297 297 297 297 297 297 298 298 298 298 297 297 297 297 297 297 297 297 297 297 297 297 297 297 297 297 298 298 297 297 296 295 295 295 295 295 295 296 296 295 295 294 293 292 292 292 292 292 291 291 291 291
298 298 298 298 298 298 298 298 298 298 297 298 298 298 297 296 297 297 297 297 297 297 297 297 297 297 297 297 297 297 297 297 297 297 297 297 296 297 297 297 298 298 298 298 297 297 296 295 295 294 294 294 294 294 295 295 294 294 293 293 292 291 291 290 291 291 291 290 291
298 298 298 298 298 298 298 297 297 297 297 297 297 297 297 297 297 296 296 297 297 297 297 297 297 297 297 297 297 297 297 297 297 296 296 296 296 297 297 298 298 297 297 297 296 296 295 295 294 294 294 293 294 294 294 294 293 293 292 292 292 291 291 291 291 291 291 291 291
298 298 298 298 298 298 297 297 297 297 296 296 296 296 296 296 296 296 296 297 296 296 296 297 297 297 296 296 296 297 297 297 296 296 296 296 297 297 297 297 296 296 296 295 296 295 295 294 294 294 293 293 293 293 293 293 292 292 291 291 292 292 291 292 292 292 292 292 291
298 298 298 298 298 297 297 297 296 296 296 296 296 296 296 296 296 296 296 296 296 296 296 296 296 296 296 296 296 296 296 296 296 296 296 297 297 296 296 295 295 295 295 295 295 295 294 294 294 294 293 293 293 293 293 293 292 292 291 291 291 292 292 292 293 292 292 292 291
298 298 298 298 297 297 297 296 296 296 296 296 296 296 296 296 295 295 295 296 296 296 296 296 296 295 296 296 296 296 296 297 297 297 297 296 296 295 295 295 294 294 294 295 295 295 294 294 294 294 293 293 293 293 293 293 292 292 291 292 292 292 293 293 293 293 292 291 291
298 298 298 297 297 297 296 296 296 296 296 296 296 296 296 296 296 296 295 295 295 295 295 295 295 295 296 295 296 296 296 297 296 296 295 294 294 294 294 294 294 294 294 294 294 294 294 294 294 294 293 293 293 293 293 293 293 293 293 292 292 292 292 293 292 292 291 291 290
297 297 297 297 297 297 296 296 296 296 295 295 295 296 296 296 296 295 295 295 295 295 295 295 295 295 295 295 295 296 296 295 295 294 294 294 293 293 293 293 293 293 293 293 293 293 293 293 294 294 293 293 293 293 293 293 293 293 293 292 291 291 291 292 292 291 291 290 290
297 297 297 297 297 296 296 296 296 296 295 295 295 295 296 296 295 295 295 294 295 295 295 294 295 295 295 295 295 295 294 294 294 293 293 293 293 293 293 293 293 293 293 293 293 293 293 293 293 293 293 293 293 293 293 293 293 292 292 290 290 290 291 291 292 291 291 290 290
297 297 297 297 296 296 296 296 296 295 295 295 295 295 295 295 295 295 295 295 295 295 295 294 295 295 295 295 294 294 293 293 293 293 293 293 293 293 293 293 293 293 293 293 293 293 293 293 293 293 293 293 293 293 293 293 292 292 291 290 290 290 291 292 292 292 291 290 290
297 297 297 297 297 296 296 296 296 296 296 296 296 295 295 295 295 295 295 295 295 295 295 294 294 294 294 294 294 294 294 294 294 294 293 293 293 293 293 293 293 293 293 293 293 293 293 293 293 293 293 292 292 292 292 292 292 292 291 290 290 290 290 291 291 291 291 290 290
297 297 297 297 297 297 296 296 296 296 296 296 296 295 295 295 295 295 295 295 295 295 295 294 294 294 294 293 293 294 294 294 294 294 294 293 293 293 293 293 293 293 293 293 293 293 293 293 293 292 292 292 292 292 292 292 292 291 291 290 290 289 289 290 290 290 290 289 289
297 297 297 297 297 297 297 297 297 296 296 296 296 296 295 295 295 295 295 295 295 295 295 294 294 294 294 294 294 294 294 294 294 294 294 294 293 293 293 293 293 293 293 293 293 293 293 293 292 292 292 292 291 290 290 290 290 290 290 290 289 289 289 289 289 288 289 288 288
297 297 297 297 297 296 296 296 296 296 296 296 296 296 295 295 295 296 296 296 295 295 295 295 294 294 294 294 294 294 294 294 294 294 294 294 294 293 293 293 293 293 293 293 293 293 293 292 292 292 291 291 290 289 289 289 289 289 289 289 289 289 289 289 288 288 288 288 288
298 297 297 297 297 297 296 297 296 296 296 296 296 296 296 295 296 296 296 295 295 295 295 295 295 295 294 294 294 294 294 294 294 294 294 294 294 293 293 293 293 293 293 293 293 292 291 291 291 291 291 290 289 289 288 288 288 288 288 288 288 288 288 288 288 288 288 288 287
298 298 297 297 297 297 297 297 296 296 296 296 296 296 296 296 296 296 295 295 295 295 295 295 295 295 295 295 295 294 294 294 294 294 293 293 293 293 293 293 293 293 293 293 289 287 287 288 289 290 290 290 289 289 289 289 288 288 288 288 288 288 287 287 287 287 287 287 287
298 297 297 297 297 297 297 296 296 296 296 296 296 296 296 296 296 296 295 295 295 295 295 295 295 295 295 295 295 294 294 294 294 294 294 293 293 293 292 292 292 293 293 291 288 287 287 288 288 288 288 289 289 289 288 288 288 288 288 287 287 287 286 286 286 286 286 286 285
297 297 297 297 297 297 296 296 296 296 296 296 296 296 296 296 296 295 295 295 295 295 295 295 295 295 294 295 294 294 294 294 294 294 294 293 293 292 292 292 292 293 292 288 287 287 287 288 287 287 287 288 288 288 288 287 287 287 287 286 286 286 286 285 285 285 285 285 284
297 297 297 297 297 296 296 296 296 296 296 296 296 296 296 296 295 295 295 295 295 295 295 295 295 295 295 295 294 294 294 294 294 294 293 293 292 292 292 291 292 292 290 287 287 287 287 287 286 286 285 286 287 288 288 287 287 287 286 286 286 286 285 285 284 284 284 284 284
297 297 297 296 296 296 296 296 296 296 296 296 296 296 296 296 295 295 295 295 295 295 295 295 295 295 295 294 294 294 294 294 294 293 293 293 292 292 292 291 291 290 288 286 287 287 287 287 286 285 284 284 286 287 287 287 286 286 286 286 285 285 285 284 284 284 284 283 283
297 297 297 296 296 296 296 296 296 297 297 297 296 296 296 295 295 295 295 295 295 295 295 295 295 294 294 294 294 294 293 293 293 293 293 292 292 291 291 291 291 290 289 286 286 287 287 287 286 285 284 283 285 286 286 286 286 285 285 285 285 284 284 284 283 283 283 283 283
297 297 296 296 296 296 296 297 297 297 297 297 296 295 295 295 295 295 295 295 295 295 294 295 294 294 294 294 294 293 293 293 293 292 292 292 291 290 290 290 291 290 288 286 286 286 286 286 286 285 284 283 284 285 286 286 285 285 285 284 284 284 284 283 283 283 283 283 282
297 296 296 296 296 296 296 297 297 297 297 296 296 295 295 295 295 295 295 295 295 294 294 294 294 294 294 294 293 293 293 292 292 292 292 291 291 290 290 290 290 289 287 285 285 285 285 285 285 285 284 284 284 285 286 285 285 285 284 285 284 284 284 283 283 283 283 282 282
297 296 296 296 296 296 297 297 297 298 297 296 296 295 295 295 295 295 295 295 295 294 294 294 293 293 293 293 293 292 292 292 292 291 291 290 290 290 289 289 290 287 285 284 284 284 284 284 283 283 283 283 284 285 285 285 285 284 284 284 284 284 284 283 283 282 282 282 282
297 296 296 296 296 296 297 297 298 297 297 296 296 296 296 295 295 295 295 294 295 294 294 294 293 293 293 293 293 292 292 291 291 291 291 290 290 289 289 289 289 286 283 283 283 283 283 283 283 282 282 282 283 284 284 284 284 284 284 284 284 283 283 283 282 282 281 281 282
296 296 296 296 296 297 297 297 297 297 297 296 296 296 295 295 295 294 294 294 294 294 294 293 293 293 293 293 293 292 291 291 291 291 290 290 289 289 288 288 289 286 282 282 282 282 282 282 282 282 282 282 283 284 284 284 283 283 283 283 282 282 282 282 282 281 281 281 281
296 296 296 296 297 297 297 297 297 297 297 296 295 295 295 295 295 295 294 294 293 293 293 293 293 292 292 292 292 291 291 290 290 290 290 289 289 288 288 287 288 285 283 281 281 281 281 282 282 282 282 282 283 284 284 284 283 282 282 281 281 281 281 281 281 281 281 281 281
296 297 297 297 297 297 297 298 297 297 296 296 295 295 294 294 294 294 294 293 293 292 292 292 292 292 291 291 291 290 290 290 289 289 289 289 288 287 287 287 287 286 283 281 281 281 281 281 281 281 281 282 283 283 283 283 282 282 281 281 281 281 281 281 281 281 281 281 281
296 297 297 297 297 297 297 298 297 296 296 295 295 294 294 294 294 294 293 292 292 292 291 291 291 291 291 291 290 290 290 289 289 288 288 288 288 287 286 285 286 286 284 282 281 281 281 281 281 281 281 282 282 282 282 281 281 280 280 280 280 280 280 280 281 281 281 281 280
297 297 297 297 297 297 297 297 297 296 295 295 294 294 294 294 294 293 293 292 292 291 291 291 291 291 290 289 289 289 289 289 288 288 288 288 287 285 284 285 285 285 284 282 281 280 280 281 281 281 281 281 281 281 281 280 280 279 279 279 279 279 280 280 280 280 280 280 280
297 298 298 298 298 297 297 296 296 296 295 295 294 294 293 293 293 293 293 292 292 291 290 290 290 290 290 288 288 289 289 288 288 288 287 287 286 284 283 285 285 285 284 282 281 280 280 280 280 280 280 281 281 281 280 280 279 279 279 279 279 279 279 279 280 280 280 280 279
298 298 297 297 297 297 296 296 295 295 295 295 294 293 293 292 292 292 292 292 291 290 290 290 290 290 289 287 288 288 288 288 287 287 287 286 285 284 284 285 284 284 283 283 281 280 280 280 280 280 280 280 280 280 280 280 279 278 278 278 278 278 278 279 279 279 279 279 279
Wind_Speed
7 6 5 4 3 3 3 3 2 2 2 2 2 2 2 2 2 1 1 1 2 2 2 2 2 3 3 4 4 4 4 4 4 3 3 3 3 3 3 3 3 3 4 4 4 3 3 3 3 3 2 2 3 3 3 2 4 5 6 6 5 6 6 7 7 7 8 9 7
7 6 5 4 3 3 3 2 2 2 1 2 2 2 2 1 1 1 1 1 1 1 2 2 2 2 3 4 4 4 4 4 4 3 2 2 2 3 3 3 3 3 4 4 4 4 3 4 4 3 3 3 3 3 3 2 4 5 6 7 6 5 6 6 7 7 8 8 8
6 6 5 4 4 3 3 2 2 2 2 2 2 2 1 1 1 1 1 1 1 1 1 2 2 2 3 3 3 3 3 4 4 3 3 2 2 3 3 3 3 3 3 4 4 4 4 5 4 4 3 3 4 4 4 4 5 5 6 7 6 5 5 5 6 7 7 6 8
6 5 5 5 5 4 4 3 3 3 3 2 2 1 1 1 1 0 0 0 1 1 2 2 2 2 2 3 3 3 3 3 3 4 3 3 3 3 3 4 4 3 3 3 4 4 5 6 5 4 4 5 5 5 5 5 5 6 5 6 5 5 5 5 5 6 6 6 7
6 5 5 5 5 4 4 3 3 2 2 1 1 1 1 1 0 0 0 0 1 1 2 2 2 2 2 2 3 3 3 2 2 3 4 4 4 4 4 4 4 4 4 3 4 4 5 7 6 5 4 5 5 5 5 6 6 6 6 5 5 5 5 5 5 6 6 6 6
5 5 5 4 4 4 3 3 3 2 2 1 1 1 1 1 1 0 0 0 1 1 1 1 2 2 2 2 3 3 3 3 2 3 4 4 4 4 5 5 5 4 4 4 4 4 5 6 6 5 4 4 5 5 5 6 6 7 7 6 6 6 6 6 6 6 7 7 8
5 5 5 4 4 3 3 3 3 3 2 2 2 1 1 1 1 0 0 0 0 0 0 0 1 2 3 3 3 3 3 3 3 3 4 4 4 5 5 5 5 5 5 5 5 5 5 6 6 5 5 4 5 5 6 6 7 7 8 8 7 6 6 6 6 6 8 9 10
5 5 4 4 4 4 4 3 2 2 2 2 2 2 1 1 1 0 0 0 0 0 0 1 1 2 3 3 3 3 4 4 4 4 4 4 5 5 6 6 6 6 6 5 6 6 7 6 6 6 5 5 5 5 6 7 7 8 9 9 8 7 7 6 6 7 8 10 10
4 4 4 3 3 3 3 3 2 2 2 2 2 2 2 1 1 1 1 0 0 1 1 1 2 2 3 3 3 3 4 4 4 5 5 5 5 6 6 6 7 7 7 6 7 7 8 7 6 6 6 6 6 6 7 8 8 9 9 9 9 9 8 8 8 9 10 10 10
4 3 3 3 3 3 3 3 2 2 2 2 3 3 2 2 1 1 0 0 0 1 1 1 2 3 3 3 3 3 4 4 4 5 5 5 5 6 6 6 7 7 7 7 7 8 8 7 6 6 6 7 8 8 9 9 9 10 9 8 9 10 11 10 11 11 11 10 11
4 3 2 2 2 2 2 2 2 2 2 2 3 3 3 3 2 1 0 0 1 1 1 1 2 3 3 3 3 3 4 4 4 5 5 5 6 6 6 6 7 7 7 7 8 7 7 6 7 8 9 9 9 9 10 10 11 11 11 10 11 11 12 11 11 11 11 11 12
3 2 2 2 2 2 2 1 1 1 1 2 2 2 2 2 2 1 1 1 1 2 1 1 2 3 3 3 3 3 4 4 5 5 6 6 6 6 6 6 7 7 8 8 7 7 7 7 8 9 10 11 9 9 10 11 12 13 13 13 13 12 12 12 12 12 11 11 12
2 1 1 2 1 1 1 1 1 1 1 2 2 2 2 2 2 1 1 1 2 2 1 1 2 2 3 3 3 3 4 5 5 6 6 6 6 6 7 7 7 7 7 7 7 7 7 8 9 10 11 11 10 10 10 12 13 13 13 14 14 13 13 13 13 12 12 13 12
1 1 1 1 1 0 1 1 0 0 1 2 2 1 1 2 2 1 1 1 2 2 2 2 2 2 2 3 3 4 4 5 6 6 6 7 7 7 7 7 8 8 8 7 7 8 8 9 10 10 11 11 11 11 12 12 12 13 13 14 14 14 14 13 13 13 13 13 12
1 1 1 0 0 1 1 1 1 0 1 2 1 1 1 2 2 1 1 2 2 2 2 2 2 2 2 3 4 4 5 5 6 7 7 7 7 7 8 8 8 8 8 8 8 8 9 10 10 10 11 11 12 12 12 12 12 13 13 14 14 14 14 14 13 13 12 12 12
2 2 2 2 1 1 1 1 1 1 1 1 1 1 1 1 1 1 1 2 2 2 2 3 3 3 3 3 4 5 5 6 6 7 7 8 8 8 8 8 9 9 9 9 9 9 9 9 9 10 11 11 12 12 12 13 13 13 13 14 14 14 14 14 14 13 12 12 13
2 2 2 2 2 2 2 2 2 1 1 1 1 1 1 1 1 1 2 2 2 2 2 3 4 4 4 4 4 5 5 6 6 7 7 8 8 9 9 9 9 9 9 10 10 10 10 9 9 10 11 11 12 12 12 13 13 13 14 14 14 14 14 14 14 13 13 13 13
3 3 2 2 2 2 2 3 2 2 2 2 2 2 1 1 1 2 2 2 2 2 3 4 4 4 5 5 5 5 5 6 7 7 8 8 9 9 10 10 10 10 10 10 10 10 10 10 10 10 11 11 12 12 12 13 13 13 14 14 14 14 14 14 14 13 12 13 13
3 3 2 2 3 3 3 3 3 3 3 2 2 2 2 2 2 2 2 2 2 3 3 4 4 4 5 5 5 5 5 6 7 8 8 9 9 10 10 10 10 10 10 10 10 10 10 10 11 11 11 12 12 12 13 13 13 13 13 14 14 14 14 14 13 13 13 13 14
3 3 3 3 3 3 3 4 4 3 3 2 3 3 3 3 3 3 3 3 2 3 4 5 5 5 5 5 6 6 6 6 7 8 8 9 9 10 10 10 10 10 10 10 10 10 10 10 11 11 12 13 13 14 14 13 13 13 13 13 13 13 14 14 14 13 14 14 14
3 3 3 3 4 4 4 4 4 4 3 3 3 3 3 3 3 3 3 3 3 4 4 5 5 5 5 6 6 6 6 6 7 8 8 9 9 10 10 10 10 10 10 10 10 10 10 11 11 12 12 13 13 14 13 13 13 14 13 13 13 13 14 14 15 15 15 15 15
3 3 4 4 4 4 4 4 4 4 4 4 4 4 4 4 4 4 3 4 4 5 5 5 5 5 5 6 6 6 6 6 7 7 8 8 9 9 10 10 10 10 10 10 9 10 10 11 11 12 12 13 13 13 13 13 14 14 14 14 14 14 14 14 14 14 15 15 15
4 4 4 4 4 5 5 5 5 5 5 5 5 5 5 5 4 4 4 4 5 5 5 5 5 5 6 6 6 7 7 7 8 8 8 9 9 10 10 10 10 10 10 9 8 8 9 9 10 11 12 12 13 13 14 14 14 14 14 15 15 15 15 14 14 14 15 15 15
4 4 4 4 5 5 5 5 6 6 6 5 5 5 5 5 5 5 5 5 5 5 5 5 5 5 6 6 7 7 8 8 9 9 9 9 10 10 10 10 10 10 9 6 6 6 6 7 8 10 11 12 12 13 13 14 14 14 15 15 15 15 15 14 15 15 15 15 14
5 5 5 5 5 6 6 6 6 6 6 6 6 6 5 5 5 5 5 5 5 5 5 6 6 6 6 6 7 7 8 8 9 9 9 9 10 10 10 10 9 8 7 5 5 5 5 6 7 8 9 11 12 12 13 14 14 15 15 15 15 15 14 14 14 14 14 14 14
6 6 6 6 6 6 7 7 7 6 6 6 6 6 6 6 5 5 6 6 6 6 6 6 6 5 5 6 7 7 8 8 8 8 9 9 10 11 10 9 9 7 5 4 5 4 5 6 7 8 8 10 11 12 12 13 14 14 15 15 14 14 14 13 14 13 13 13 13
6 6 6 6 7 7 7 7 7 7 7 6 6 6 6 6 5 6 6 6 6 6 6 6 6 5 5 6 7 8 8 8 8 8 9 9 10 11 11 10 9 6 4 6 5 5 6 7 7 7 8 9 11 11 12 12 13 14 14 13 13 13 14 14 14 14 14 13 14
6 6 7 7 7 7 7 7 7 7 7 7 7 6 6 6 6 7 7 7 6 6 6 6 5 5 5 6 7 8 8 8 8 8 9 9 10 11 11 10 9 6 6 7 5 6 7 7 6 6 7 8 10 11 12 13 13 13 12 12 12 13 14 14 13 13 14 14 14
7 7 7 7 7 7 8 8 7 7 7 7 6 6 6 6 7 7 7 7 7 7 6 5 4 4 5 6 7 8 8 8 8 8 9 10 10 11 11 11 10 6 7 8 6 7 7 7 6 5 6 7 8 9 10 11 11 12 11 11 11 12 13 13 13 13 13 14 14
7 7 7 8 8 8 8 8 7 7 6 6 6 6 6 7 7 7 8 7 7 7 6 5 5 6 7 8 8 8 8 8 8 8 9 10 11 11 11 11 10 6 7 9 8 8 8 7 6 5 5 6 9 10 10 11 11 11 11 11 12 13 14 14 14 14 14 14 14
7 8 8 8 8 8 8 8 7 6 6 5 6 6 7 7 7 8 8 7 7 6 6 6 7 8 9 9 8 8 8 8 8 9 9 10 10 10 11 11 10 6 8 9 9 9 9 8 7 7 6 7 9 10 11 12 12 12 11 11 12 13 14 13 13 14 15 15 15
8 8 8 8 8 8 8 8 7 6 5 5 6 6 7 7 8 8 7 7 7 6 7 7 8 9 9 9 8 8 8 8 9 9 9 9 10 10 11 11 8 6 8 9 9 9 10 10 9 9 9 9 10 11 12 13 12 12 12 12 14 14 14 13 13 14 15 15 14
8 8 8 9 9 8 8 7 6 6 5 5 6 6 7 7 7 7 7 6 6 6 7 8 8 9 9 9 8 8 8 7 8 8 9 9 10 10 10 10 6 7 9 9 9 10 10 11 11 12 13 13 12 13 13 13 11 11 11 11 13 14 14 15 14 14 14 14 13
8 8 8 9 9 9 8 7 6 6 5 6 6 6 7 7 7 7 7 5 5 5 6 7 8 8 8 8 7 7 7 6 7 8 8 9 10 10 10 9 5 7 10 9 10 10 11 12 13 14 14 15 13 13 13 13 11 11 11 12 13 13 14 14 14 13 13 13 12
8 8 8 8 9 9 8 8 6 6 6 6 6 6 7 7 7 7 6 4 4 5 6 7 7 7 7 7 6 6 6 6 6 7 8 8 9 9 9 9 5 7 10 9 10 10 11 12 13 14 15 14 12 12 12 13 11 11 12 12 13 13 14 13 13 12 12 11 11
8 7 8 8 8 9 8 8 7 6 6 6 6 7 7 7 6 5 4 4 4 6 7 7 7 7 6 6 5 5 5 6 6 6 6 7 8 8 9 9 6 6 8 8 9 10 11 12 13 14 14 13 11 11 11 11 10 10 11 12 12 13 13 12 11 11 10 10 10
7 7 7 7 8 8 8 8 7 7 7 7 7 7 6 6 5 4 3 3 5 6 7 7 7 6 6 6 6 5 5 5 5 5 5 6 7 8 8 9 7 6 6 8 9 10 11 12 13 14 14 12 11 10 10 9 9 9 10 11 11 12 12 11 10 9 9 9 10
7 7 6 7 7 8 8 8 8 7 7 7 7 6 6 5 5 4 3 3 5 6 6 7 7 6 5 6 6 5 4 4 4 4 5 5 6 7 8 8 8 6 6 7 8 10 11 12 13 13 13 11 11 10 9 8 8 9 9 9 10 10 10 9 8 8 8 9 10
6 6 6 7 8 8 9 8 8 8 7 7 7 6 5 5 4 3 3 3 4 5 6 6 6 5 5 5 5 4 3 2 2 3 4 5 5 5 6 7 8 7 6 6 8 9 11 12 13 13 13 11 10 9 8 8 8 9 9 9 9 9 9 8 7 7 8 9 11
6 6 6 7 8 9 9 9 8 8 7 6 6 6 5 4 4 3 3 3 4 5 5 6 5 4 4 4 4 4 3 2 2 2 3 4 3 3 4 6 7 7 6 6 7 9 10 11 12 13 13 10 9 8 7 7 8 8 8 8 8 8 8 8 7 7 8 9 10
5 6 6 8 8 9 9 9 8 7 7 6 6 5 4 4 4 4 4 4 4 4 5 4 4 3 3 3 4 3 3 3 2 2 2 3 3 2 3 5 6 7 7 7 7 8 10 11 12 13 12 10 9 8 7 7 7 8 9 9 8 8 8 8 8 7 8 9 9
Wind_Direction
89 86 83 78 78 78 79 79 70 53 36 34 28 26 22 9 17 20 20 12 359 351 348 345 345 349 351 351 347 345 343 342 341 338 331 324 337 338 337 338 338 336 333 329 324 322 323 326 321 318 317 313 310 313 321 335 319 313 312 313 313 313 313 313 312 314 315 313 311
92 94 98 102 101 99 98 101 103 95 67 45 34 30 29 24 18 19 21 23 9 353 342 334 341 348 351 348 346 343 341 340 337 330 322 320 333 331 327 333 337 334 329 324 322 322 322 320 314 312 309 306 306 309 314 317 304 304 307 311 311 311 310 311 314 315 315 312 312
88 88 87 87 84 80 76 70 65 61 56 52 53 54 53 46 29 24 24 32 17 359 344 329 339 352 354 347 347 342 338 339 333 325 317 316 326 325 324 329 327 322 317 314 320 323 320 313 307 303 302 304 308 311 312 312 308 307 308 311 310 308 308 309 314 315 314 312 313
84 77 70 65 63 62 60 53 49 49 53 67 75 85 87 80 68 52 46 63 40 15 356 339 340 351 356 348 341 334 330 337 323 315 311 314 322 321 317 316 311 308 307 308 314 315 313 307 300 296 298 303 305 308 311 313 313 311 309 310 307 306 306 309 313 315 314 312 314
90 82 75 72 68 66 64 62 64 69 77 89 98 105 105 104 103 101 98 93 63 37 11 346 339 343 346 335 324 318 316 322 303 303 309 314 314 311 308 305 306 306 304 298 296 298 300 300 295 295 299 304 306 307 307 309 310 311 310 308 305 304 305 309 314 315 314 311 312
95 88 83 79 77 76 77 80 84 90 94 93 97 104 112 120 131 133 106 66 76 62 29 344 326 324 322 313 311 311 311 312 309 313 316 313 311 308 305 301 299 297 296 293 290 288 287 291 291 294 299 304 299 299 302 308 312 314 314 309 306 305 307 312 315 314 311 308 309
88 86 86 87 86 85 88 97 108 117 123 122 111 99 91 100 108 111 114 83 105 111 170 264 311 314 312 309 313 315 316 319 324 322 317 311 310 308 304 300 297 296 296 300 298 295 292 291 290 293 298 300 296 299 306 313 314 314 313 309 307 306 309 313 311 307 303 303 308
84 79 77 79 80 80 81 83 91 105 117 116 115 113 109 104 112 145 184 186 69 6 309 294 313 310 307 309 317 320 320 320 324 323 320 316 314 311 307 304 304 304 306 308 304 302 299 293 291 294 299 298 299 305 310 312 309 306 304 303 302 303 305 306 299 295 295 300 305
92 88 85 83 81 83 84 83 79 79 91 107 117 124 130 134 170 202 204 119 35 340 308 302 302 299 298 304 314 319 322 325 330 328 325 321 320 317 314 312 313 314 314 313 304 298 293 289 290 295 300 301 301 303 305 304 299 296 295 295 298 300 302 301 296 295 297 301 304
89 92 94 94 91 92 95 99 101 108 120 127 135 141 147 160 188 212 281 41 351 297 292 302 300 297 297 302 312 321 327 329 329 324 320 318 319 320 319 318 318 316 312 307 299 294 292 290 293 298 300 299 300 302 302 301 298 295 293 292 296 298 299 298 298 299 302 304 306
81 81 83 88 93 94 98 106 116 130 146 146 155 159 163 169 170 166 73 340 275 271 278 295 298 299 301 306 319 325 326 324 320 316 314 315 319 321 319 315 310 304 299 294 294 295 296 298 301 303 304 303 304 305 306 306 303 301 299 297 297 298 298 298 300 302 304 304 305
86 83 80 77 80 82 84 87 102 123 146 161 172 175 171 160 148 154 203 234 259 261 263 279 293 301 307 316 322 321 319 317 315 312 312 317 318 315 309 300 294 292 291 292 296 300 302 305 307 307 307 307 308 308 309 309 307 305 304 302 301 301 301 301 302 301 301 300 300
96 90 80 76 81 79 69 52 62 107 148 171 186 190 175 148 146 171 216 230 254 265 275 280 286 296 307 318 317 315 314 313 313 312 311 312 307 301 296 292 293 295 297 300 303 305 306 307 307 307 307 308 307 308 308 308 307 307 306 306 305 304 302 301 299 297 295 295 295
125 112 79 85 104 73 29 25 24 111 160 183 194 196 183 161 158 182 230 252 270 285 292 288 282 291 305 311 310 309 309 308 307 305 301 297 294 293 295 298 301 303 304 305 306 306 305 305 305 306 306 307 307 307 307 306 307 308 308 308 307 304 302 298 295 293 292 292 293
172 191 204 201 238 301 328 333 319 248 178 193 191 198 199 182 163 178 239 273 280 287 294 298 300 301 301 300 301 302 302 300 296 293 291 291 293 298 302 304 304 304 304 304 303 303 302 302 304 306 307 307 307 307 307 307 308 309 308 307 305 302 299 296 293 292 291 293 294
196 209 218 225 252 288 311 310 311 297 228 202 195 208 216 206 170 179 220 265 275 285 298 307 307 304 300 297 299 299 296 291 289 291 294 299 303 305 305 304 303 302 303 302 302 301 301 303 305 308 309 309 308 308 308 309 308 307 306 304 303 301 298 296 295 294 294 295 295
214 220 227 237 262 288 308 315 310 298 271 242 229 226 226 224 195 196 215 249 275 292 303 306 305 306 306 305 303 299 295 292 295 300 304 308 309 308 306 303 303 303 303 303 304 304 306 308 310 311 311 310 309 308 308 307 306 305 305 305 304 302 300 298 297 296 296 295 295
226 228 233 247 266 282 294 302 300 292 280 268 250 236 226 224 229 227 229 236 265 285 295 297 297 300 302 304 303 301 300 302 306 309 310 310 309 307 305 304 304 305 306 306 307 309 311 313 315 314 312 310 308 307 306 305 304 305 307 308 307 305 302 300 299 298 296 294 293
234 233 236 249 266 275 281 286 288 285 278 268 258 243 230 222 235 241 243 238 251 272 284 289 290 292 295 299 302 305 307 308 310 311 311 309 307 305 305 305 307 308 309 309 309 311 313 315 315 315 313 312 310 308 306 305 305 307 308 309 307 305 303 301 300 297 294 292 291
240 241 248 261 275 281 282 281 284 284 279 266 254 244 236 229 235 244 252 257 260 268 275 281 285 291 296 301 305 308 310 309 310 309 308 307 306 307 307 309 309 308 308 307 308 311 313 315 317 317 315 313 311 309 307 306 306 307 308 307 306 304 304 303 302 299 296 294 293
242 249 261 277 285 288 288 287 285 280 270 260 251 245 241 239 240 247 255 266 266 267 270 276 284 293 300 306 309 311 310 308 308 308 307 307 308 309 309 309 307 306 304 305 308 312 316 318 318 317 315 312 310 310 310 309 309 309 308 307 306 306 306 306 305 303 302 300 299
246 255 266 278 284 288 288 287 279 272 266 260 252 246 244 244 247 250 254 260 262 265 271 279 288 296 302 306 308 308 307 306 305 306 307 309 309 309 309 306 304 303 302 304 311 316 319 319 316 314 312 310 311 313 313 313 312 311 310 309 308 307 307 306 306 305 304 303 303
254 264 272 276 277 279 280 279 275 271 268 263 253 247 245 247 251 254 256 258 263 270 278 286 291 297 300 303 304 304 304 304 304 305 308 310 310 310 309 307 304 302 303 307 319 325 323 317 313 310 310 311 314 315 316 315 314 312 311 310 308 307 306 306 305 304 303 303 304
261 270 275 275 273 274 275 277 276 273 269 262 255 251 249 250 253 257 261 265 271 277 283 287 290 294 297 299 299 300 301 303 305 308 310 312 312 311 310 306 303 302 305 319 346 350 338 321 314 312 312 313 315 316 316 315 314 312 311 310 309 308 307 306 305 304 305 305 306
264 269 270 269 268 271 274 276 276 274 269 264 259 257 255 255 256 261 266 271 276 280 283 285 286 290 293 294 295 297 299 301 305 309 311 312 312 312 310 306 305 306 314 347 29 22 351 324 319 316 315 315 316 316 315 314 313 312 311 310 309 309 307 306 305 305 306 308 310
264 266 265 264 265 269 274 277 276 273 269 265 262 260 259 259 261 265 270 274 278 281 283 284 285 287 288 289 291 294 297 300 304 308 310 312 313 314 313 310 309 312 331 26 35 13 338 322 322 321 319 316 317 316 315 313 313 312 310 309 309 308 307 306 306 307 309 310 313
265 266 267 267 267 271 275 280 279 274 269 264 262 261 261 264 269 273 276 279 282 283 283 281 283 282 281 283 289 293 297 300 304 307 310 313 315 316 315 313 312 324 4 47 28 356 333 326 333 334 328 320 317 315 314 312 312 311 310 309 307 307 307 307 309 310 312 313 313
267 271 274 274 273 275 280 283 280 275 270 264 262 263 266 270 275 278 280 282 284 283 281 279 282 284 285 288 292 295 298 301 305 309 313 316 317 318 317 315 317 346 39 51 21 350 335 332 342 347 341 327 318 313 311 310 310 310 309 308 308 308 309 311 312 312 313 312 311
271 274 277 278 279 281 283 285 281 277 272 267 266 267 268 271 273 276 278 281 281 282 284 288 291 293 293 294 296 297 299 303 308 313 316 319 320 319 318 316 317 354 50 52 16 349 337 334 342 349 346 331 319 313 311 310 310 310 309 309 309 311 311 312 312 312 311 310 310
275 277 278 279 280 282 284 287 285 281 277 272 268 266 266 267 270 273 276 277 279 283 289 296 295 294 294 295 297 300 304 310 315 318 320 321 321 319 317 317 317 351 42 44 12 351 340 336 336 337 333 323 315 311 308 308 309 309 308 308 309 310 310 311 311 311 311 311 312
278 280 281 281 281 283 285 288 288 284 277 269 265 264 265 268 271 274 276 278 282 286 291 292 291 292 294 297 301 306 311 316 319 321 323 323 320 319 318 317 320 354 38 37 11 355 347 342 336 329 321 311 308 307 306 306 307 306 306 306 308 309 311 311 311 312 313 315 316
280 282 283 284 284 285 287 289 287 282 273 264 261 262 265 269 273 276 280 283 286 289 291 292 294 296 299 303 307 310 314 318 321 323 324 323 320 320 319 315 331 16 42 32 13 1 353 347 339 331 323 312 305 303 302 302 302 302 302 304 307 310 312 314 314 315 316 318 319
281 283 284 286 287 288 289 289 286 278 267 259 259 261 264 269 274 277 278 280 284 290 295 300 303 305 307 309 309 311 315 320 323 324 324 323 320 321 320 313 344 39 50 28 15 3 354 347 340 335 329 320 309 302 299 299 300 301 303 307 311 314 316 316 316 317 318 319 318
281 283 285 287 289 290 291 289 283 273 263 256 257 260 264 269 273 275 276 280 290 298 302 303 305 306 306 305 306 312 318 325 326 326 326 324 323 323 322 316 354 48 53 26 13 1 351 345 340 336 331 322 311 303 300 302 303 306 310 313 316 317 318 318 317 317 317 317 317
281 282 285 288 291 292 293 291 284 274 265 261 262 265 267 269 273 277 283 296 302 302 299 298 298 296 295 296 305 315 324 328 328 328 328 327 325 325 324 320 354 46 53 27 11 358 349 343 340 336 330 320 309 304 304 308 310 314 316 317 316 316 316 316 316 317 317 317 319
284 283 284 287 290 292 292 290 285 277 271 269 270 272 273 274 276 282 292 305 300 296 295 294 292 290 292 301 314 324 329 330 330 331 331 329 328 328 327 324 348 35 51 29 10 357 349 343 340 336 330 320 312 310 313 317 318 319 318 316 314 314 315 316 316 316 317 318 322
285 284 284 286 288 289 288 286 282 277 275 275 275 276 278 281 283 288 297 301 297 296 296 295 293 296 305 320 327 331 333 333 333 333 333 333 334 334 332 329 341 9 36 30 10 358 349 343 342 338 332 323 319 319 321 323 322 319 317 315 314 315 316 315 314 314 316 318 323
288 288 287 286 286 285 284 281 278 278 278 278 279 280 282 284 287 294 303 304 302 300 299 295 296 305 320 331 328 329 330 333 338 338 336 339 346 343 337 332 336 348 12 28 11 358 349 344 343 341 337 328 326 326 326 325 321 318 317 316 315 316 316 314 315 315 316 320 322
297 297 294 288 285 282 279 277 277 277 279 280 282 284 285 287 294 305 314 309 303 298 295 291 297 311 328 332 322 319 322 333 350 351 347 347 359 353 339 331 333 341 359 25 13 0 350 345 345 343 340 333 330 328 326 323 320 319 318 317 316 316 316 316 317 317 318 321 321
302 299 292 284 280 277 276 275 276 277 278 281 285 288 291 298 307 313 311 296 288 282 281 283 296 313 328 324 312 313 320 331 358 9 1 348 4 353 333 326 331 336 349 16 13 2 352 347 346 345 343 338 333 329 325 322 320 320 319 319 319 319 320 320 321 321 321 320 320
296 288 281 276 274 273 273 274 275 276 278 280 284 291 300 311 310 302 291 277 268 266 268 278 294 309 317 301 302 313 324 322 337 1 1 335 343 333 324 328 333 336 343 2 8 1 353 348 347 347 346 343 335 329 325 324 322 322 323 324 325 325 324 322 322 321 321 320 320